Find Starlink 31763

NORAD ID: 59623 Int'l Des: 2024-080 Owner: SPXS Country: US Constellation: starlink operational
LEOCIRCULAR

Current View

Loading 3D Globe...

About Starlink 31763

Starlink 31763 (NORAD 59623) is a starlink constellation satellite (v2 mini) launched Apr 28, 2024 by SPXS of US. It operates in LEO, CIRCULAR orbit with a mass of 730.00 kg.

Upcoming Passes

Passes for default location (London). Set your location on the main map for personalized predictions.

Altitude History

Loading altitude history...

Two-Line Element Set

1 59623U 24080Y 26245.92268047 .00000329 00000-0 21464-4 0 9991
2 59623 43.0019 117.3723 0001093 265.2171 94.8556 15.27579714131634
Epoch: Sep 2, 2026 • Age: 28 hours

Current Status

Altitude 489.0 km
Apogee / Perigee N/A
Velocity 7.62 km/s
Sub-Earth Point -25.63°S, 48.21°W
Launch Date Apr 28, 2024
Age 2.3 years
Type internet

Technical Details

Classification Payload
Mass 730.00 kg
Dry Mass 700.00 kg
Total Mass 730.00 kg
Length 0.30 m
Diameter 4.10 m
Span 29.00 m
Shape Box + pan
Manufacturer SPXS
Bus Type Starlink V2M
Phase Status In Orbit
Owner/State SPXS/US

Most Searched